Volver al catálogo

DMSP 5D-2 F13 DEB

ActivoSSO
NORAD 40678·DEBRIS·🇺🇸 United States

Lanzado Mar 24, 1995 desde Vandenberg Space Force Base

Loading…

Próximos Pases (próximas 24 horas)

TLE

ActualizadoSource: Space-Track

Época: Sep 13, 2026, 14:33 UTC

1 40678U 95015FS  26256.60630419  .00005225  00000-0  11620-2 0  9991
2 40678  98.5811 313.7150 0012783 243.5961 116.3925 14.57371978592577

Sigue DMSP 5D-2 F13 DEB en tiempo real con AllMySat

Download on the App Store